Location: East Horndon
(51.5667°N, 0.3500°E)
Time: 01:17:19
(UTC+00:00)

Cosmos 1943 Rocket - Visible Passes

Search period start: 15 February 2026 00:00
Search period end: 25 February 2026 00:00
Orbit: 811 x 842 km, 71.0° (Epoch: 13 February)

Date Brightness Start Highest point End Pass type
(mag) Time Alt. Az. Time Alt. Az. Time Alt. Az.
15 Feb 5.0 02:18:39 11° N 02:18:39 11° N 02:18:51 10° N visible
15 Feb 4.5 05:44:43 10° N 05:48:08 16° NNE 05:51:32 10° ENE visible
16 Feb 4.5 05:25:09 10° N 05:28:21 15° NNE 05:31:33 10° ENE visible
17 Feb 4.6 05:05:35 10° N 05:08:33 14° NNE 05:11:33 10° NE visible
18 Feb 4.8 03:02:03 10° N 03:02:18 10° N 03:02:53 10° N visible
18 Feb 4.6 04:46:00 10° N 04:48:46 14° NNE 04:51:31 10° NE visible
18 Feb 3.6 06:29:03 10° NNW 06:34:12 36° NE 06:39:24 10° ESE visible
19 Feb 4.9 02:42:40 10° N 02:42:40 10° N 02:43:23 10° N visible
19 Feb 4.7 04:26:26 10° N 04:28:57 13° NNE 04:31:29 10° NE visible
19 Feb 3.7 06:09:26 10° NNW 06:14:31 33° NE 06:19:35 10° ESE visible
20 Feb 4.9 02:23:17 10° N 02:23:17 10° N 02:23:51 10° N visible
20 Feb 4.7 04:06:52 10° N 04:09:09 12° NNE 04:11:27 10° NE visible
20 Feb 3.9 05:49:51 10° NNW 05:54:48 31° NE 05:59:46 10° ESE visible
21 Feb 5.0 02:03:53 10° N 02:03:53 10° N 02:04:19 10° N visible
21 Feb 4.8 03:47:18 10° N 03:49:20 12° NNE 03:51:23 10° NE visible
21 Feb 4.0 05:30:15 10° NNW 05:35:05 28° NE 05:39:55 10° E visible
22 Feb 5.0 01:44:28 10° N 01:44:28 10° N 01:44:46 10° N visible
22 Feb 4.8 03:27:43 10° N 03:29:31 11° NNE 03:31:19 10° NNE visible
22 Feb 4.1 05:10:40 10° NNW 05:15:21 26° NE 05:20:03 10° E visible
23 Feb 5.1 01:25:02 10° N 01:25:02 10° N 01:25:12 10° N visible
23 Feb 4.9 03:08:09 10° N 03:09:42 11° NNE 03:11:16 10° NNE visible
23 Feb 4.2 04:51:05 10° NNW 04:55:37 24° NE 05:00:10 10° E visible
24 Feb 5.1 01:05:36 10° N 01:05:36 10° N 01:05:38 10° N visible
24 Feb 4.9 02:48:35 10° N 02:49:53 11° N 02:51:10 10° NNE visible
24 Feb 4.3 04:31:29 10° NNW 04:35:52 23° NE 04:40:16 10° E visible
24 Feb 2.4 06:14:49 10° NNW 06:20:28 82° ENE 06:26:08 10° SSE visible
